GW7271 Weather Reports


time (UTC)temp
C
wind
direction
speed
KPH
gust
KPH
rain 1hr
cm
rain 24hr
cm
rain mn
cm
humidity
%
barometer
mb
20260509042616 6 185 0.0 1.6 0.00 0.00 0.00 52 1006.4
20260509042112 7 187 1.6 1.6 0.00 0.00 0.00 52 1006.3
20260509041609 7 187 1.6 1.6 0.00 0.00 0.00 52 1006.2
20260509041107 7 187 0.0 0.0 0.00 0.00 0.00 52 1006.3
20260509040605 7 187 1.6 1.6 0.00 0.00 0.00 53 1006.4
20260509040101 6 187 0.0 3.2 0.00 0.00 0.00 56 1006.5
20260509035558 6 195 3.2 4.8 0.00 0.00 0.00 58 1006.5
20260509035055 6 194 1.6 1.6 0.00 0.00 0.00 56 1006.7
20260509034553 6 196 1.6 1.6 0.00 0.00 0.00 64 1006.4
20260509034050 7 196 1.6 1.6 0.00 0.00 0.00 64 1006.6
20260509033547 7 196 1.6 1.6 0.00 0.00 0.00 58 1006.4
20260509033044 7 196 1.6 1.6 0.00 0.00 0.00 57 1006.7
20260509032541 7 196 0.0 1.6 0.00 0.00 0.00 63 1006.5
20260509032038 7 196 3.2 3.2 0.00 0.00 0.00 62 1006.8
20260509031536 7 196 3.2 3.2 0.00 0.00 0.00 60 1006.8
20260509031033 7 195 3.2 3.2 0.00 0.00 0.00 55 1006.7
20260509030531 7 196 3.2 3.2 0.00 0.00 0.00 59 1006.8
20260509030027 7 197 1.6 3.2 0.00 0.00 0.00 61 1007.0
20260509025523 7 203 0.0 1.6 0.00 0.00 0.00 61 1007.1
20260509025019 8 203 3.2 3.2 0.00 0.00 0.00 55 1007.0
20260509024515 8 202 1.6 1.6 0.00 0.00 0.00 47 1007.1
20260509024012 8 203 1.6 1.6 0.00 0.00 0.00 47 1007.3
20260509023509 8 202 1.6 1.6 0.00 0.00 0.00 47 1007.0
20260509023006 8 203 0.0 1.6 0.00 0.00 0.00 48 1007.1
20260509022502 8 202 1.6 1.6 0.00 0.00 0.00 48 1007.1
20260509022000 8 202 0.0 1.6 0.00 0.00 0.00 54 1007.2
20260509021457 8 203 3.2 3.2 0.00 0.00 0.00 47 1007.1
20260509020954 9 203 1.6 0.0 0.00 0.00 0.00 44 1007.5
20260509020453 9 202 1.6 1.6 0.00 0.00 0.00 46 1007.1
20260509015949 9 203 1.6 1.6 0.00 0.00 0.00 49 1007.2
20260509015448 9 203 0.0 0.0 0.00 0.00 0.00 53 1007.3
20260509014944 10 202 1.6 3.2 0.00 0.00 0.00 49 1007.3
20260509014441 10 203 0.0 3.2 0.00 0.00 0.00 46 1007.4
20260509013937 9 202 3.2 3.2 0.00 0.00 0.00 44 1007.2
20260509013434 10 203 0.0 1.6 0.00 0.00 0.00 45 1007.2
20260509012930 10 203 1.6 1.6 0.00 0.00 0.00 44 1006.9
20260509012427 10 203 0.0 0.0 0.00 0.00 0.00 39 1007.0
20260509011924 11 203 1.6 1.6 0.00 0.00 0.00 40 1007.2
20260509011421 11 203 0.0 3.2 0.00 0.00 0.00 42 1007.0
20260509010919 11 200 1.6 4.8 0.00 0.00 0.00 37 1007.2
20260509010416 11 199 3.2 3.2 0.00 0.00 0.00 39 1007.2
20260509005913 12 199 0.0 0.0 0.00 0.00 0.00 36 1007.0
20260509005411 13 199 1.6 1.6 0.00 0.00 0.00 35 1007.0
20260509004911 13 208 3.2 3.2 0.00 0.00 0.00 32 1007.2
20260509004408 13 218 3.2 3.2 0.00 0.00 0.00 33 1007.1
20260509003905 14 192 3.2 3.2 0.00 0.00 0.00 33 1007.0
20260509003403 14 226 4.8 4.8 0.00 0.00 0.00 32 1006.9
20260509002900 15 267 3.2 4.8 0.00 0.00 0.00 29 1007.0
20260509002358 15 276 3.2 3.2 0.00 0.00 0.00 30 1007.0
20260509001855 15 273 6.4 9.7 0.00 0.00 0.00 27 1007.2
20260509001351 15 286 6.4 6.4 0.00 0.00 0.00 28 1007.0
20260509000848 15 263 4.8 6.4 0.00 0.00 0.00 27 1007.0
20260509000348 15 243 8.0 11.3 0.00 0.00 0.00 25 1007.2
20260508235842 15 285 3.2 6.4 0.00 0.00 0.00 27 1007.2
20260508235339 15 292 8.0 12.9 0.00 0.00 0.00 25 1007.1
20260508234836 16 314 8.0 12.9 0.00 0.00 0.00 26 1007.2
20260508234332 16 270 6.4 12.9 0.00 0.00 0.00 25 1007.2
20260508233831 16 291 9.7 11.3 0.00 0.00 0.00 24 1007.0
20260508233330 16 307 3.2 11.3 0.00 0.00 0.00 24 1007.1
20260508232826 17 219 1.6 12.9 0.00 0.00 0.00 24 1007.1
20260508232323 17 299 3.2 6.4 0.00 0.00 0.00 24 1006.8
20260508231822 17 255 8.0 12.9 0.00 0.00 0.00 24 1006.9
20260508231317 17 286 9.7 14.5 0.00 0.00 0.00 23 1007.0
20260508230814 17 288 9.7 14.5 0.00 0.00 0.00 22 1006.8
20260508230311 17 286 9.7 20.9 0.00 0.00 0.00 24 1006.9
20260508225808 17 249 22.5 30.6 0.00 0.00 0.00 22 1006.7
20260508225306 17 244 6.4 17.7 0.00 0.00 0.00 23 1006.8
20260508224803 17 261 12.9 16.1 0.00 0.00 0.00 22 1006.8
20260508224300 17 266 11.3 14.5 0.00 0.00 0.00 21 1006.8
20260508223757 17 289 4.8 6.4 0.00 0.00 0.00 21 1007.0
20260508223255 17 298 12.9 17.7 0.00 0.00 0.00 21 1007.0
20260508222752 17 295 9.7 12.9 0.00 0.00 0.00 22 1006.8
20260508222249 17 224 16.1 16.1 0.00 0.00 0.00 23 1006.8
20260508221746 17 292 6.4 14.5 0.00 0.00 0.00 23 1006.7
20260508221241 17 287 8.0 22.5 0.00 0.00 0.00 22 1007.0
20260508220737 17 261 12.9 17.7 0.00 0.00 0.00 22 1006.8
20260508220234 17 298 6.4 17.7 0.00 0.00 0.00 21 1006.7
20260508215731 17 253 14.5 16.1 0.00 0.00 0.00 22 1007.0
20260508215227 17 281 9.7 22.5 0.00 0.00 0.00 22 1006.9
20260508214725 17 247 11.3 17.7 0.00 0.00 0.00 22 1007.0
20260508214222 17 278 16.1 20.9 0.00 0.00 0.00 21 1006.9
20260508213718 17 247 9.7 12.9 0.00 0.00 0.00 22 1006.9
20260508213215 18 296 11.3 20.9 0.00 0.00 0.00 22 1006.9
20260508212711 17 256 12.9 24.1 0.00 0.00 0.00 20 1006.7
20260508212208 17 300 12.9 20.9 0.00 0.00 0.00 20 1007.0
20260508211703 17 216 11.3 33.8 0.00 0.00 0.00 22 1007.0
20260508211159 17 242 9.7 16.1 0.00 0.00 0.00 23 1007.0
20260508210657 17 276 14.5 16.1 0.00 0.00 0.00 21 1007.1
20260508210154 17 303 16.1 20.9 0.00 0.00 0.00 21 1007.2
20260508205651 18 276 11.3 14.5 0.00 0.00 0.00 21 1007.2
20260508205147 17 329 8.0 12.9 0.00 0.00 0.00 23 1007.2
20260508204643 17 268 12.9 16.1 0.00 0.00 0.00 22 1007.3
20260508204140 17 286 16.1 17.7 0.00 0.00 0.00 22 1007.1
20260508203636 17 290 4.8 14.5 0.00 0.00 0.00 21 1007.4
20260508203132 18 250 6.4 17.7 0.00 0.00 0.00 22 1007.4
20260508202629 17 336 8.0 16.1 0.00 0.00 0.00 23 1007.4
20260508202126 17 285 11.3 16.1 0.00 0.00 0.00 23 1007.4
20260508201622 17 189 11.3 20.9 0.00 0.00 0.00 24 1007.4
20260508201119 17 287 12.9 27.4 0.00 0.00 0.00 23 1007.7
20260508200616 18 323 6.4 17.7 0.00 0.00 0.00 23 1007.7
20260508200112 17 50 4.8 17.7 0.00 0.00 0.00 23 1007.7
20260508195609 17 310 1.6 14.5 0.00 0.00 0.00 23 1007.7
20260508195105 17 216 12.9 16.1 0.00 0.00 0.00 23 1007.9
20260508194602 17 251 6.4 11.3 0.00 0.00 0.00 23 1008.1
20260508194059 17 312 11.3 17.7 0.00 0.00 0.00 22 1008.2
20260508193555 17 280 14.5 22.5 0.00 0.00 0.00 24 1008.2
20260508193052 17 287 9.7 17.7 0.00 0.00 0.00 24 1008.6
20260508192549 16 148 1.6 4.8 0.00 0.00 0.00 24 1008.4
20260508192046 16 235 24.1 29.0 0.00 0.00 0.00 25 1008.6
20260508191543 16 295 11.3 17.7 0.00 0.00 0.00 25 1008.5
20260508191039 16 250 16.1 22.5 0.00 0.00 0.00 26 1008.4
20260508190537 16 277 11.3 16.1 0.00 0.00 0.00 27 1008.6
20260508190033 16 250 14.5 25.7 0.00 0.00 0.00 27 1008.6
20260508185530 16 208 9.7 14.5 0.00 0.00 0.00 28 1008.7
20260508185028 16 219 20.9 29.0 0.00 0.00 0.00 25 1008.8
20260508184525 16 288 6.4 12.9 0.00 0.00 0.00 25 1009.0
20260508184022 16 282 6.4 11.3 0.00 0.00 0.00 26 1008.9
20260508183519 16 172 9.7 14.5 0.00 0.00 0.00 26 1008.9
20260508183014 16 305 14.5 20.9 0.00 0.00 0.00 31 1009.1
20260508182511 16 258 11.3 12.9 0.00 0.00 0.00 25 1009.0
20260508182007 16 265 11.3 22.5 0.00 0.00 0.00 28 1009.1
20260508181503 16 229 17.7 20.9 0.00 0.00 0.00 28 1009.1
20260508181001 16 250 14.5 20.9 0.00 0.00 0.00 27 1009.1
20260508180457 16 220 14.5 16.1 0.00 0.00 0.00 26 1009.2
20260508175953 15 218 9.7 12.9 0.00 0.00 0.00 28 1009.4
20260508175450 16 245 9.7 20.9 0.00 0.00 0.00 28 1009.5
20260508174948 16 255 9.7 14.5 0.00 0.00 0.00 28 1009.5
20260508174445 16 282 6.4 11.3 0.00 0.00 0.00 31 1009.5
20260508173942 15 323 6.4 14.5 0.00 0.00 0.00 31 1009.6
20260508173439 15 210 19.3 25.7 0.00 0.00 0.00 28 1009.8
20260508172934 15 233 12.9 16.1 0.00 0.00 0.00 28 1009.8
20260508172432 15 234 20.9 24.1 0.00 0.00 0.00 29 1009.7
20260508171928 15 261 9.7 14.5 0.00 0.00 0.00 31 1010.0
20260508171425 15 277 11.3 14.5 0.00 0.00 0.00 30 1010.3
20260508170922 15 283 1.6 14.5 0.00 0.00 0.00 30 1010.1
20260508170419 15 216 12.9 24.1 0.00 0.00 0.00 30 1010.3
20260508165915 15 267 16.1 25.7 0.00 0.00 0.00 29 1010.5
20260508165414 14 245 6.4 11.3 0.00 0.00 0.00 29 1010.4
20260508164909 14 253 9.7 16.1 0.00 0.00 0.00 30 1010.6
20260508164407 14 286 9.7 16.1 0.00 0.00 0.00 31 1010.6
20260508163904 14 245 20.9 25.7 0.00 0.00 0.00 30 1010.5
20260508163402 14 269 6.4 14.5 0.00 0.00 0.00 29 1010.6
20260508162856 14 280 11.3 16.1 0.00 0.00 0.00 30 1011.0
20260508162354 14 193 14.5 17.7 0.00 0.00 0.00 29 1010.6
20260508161851 13 211 17.7 20.9 0.00 0.00 0.00 31 1010.7
20260508161348 14 258 4.8 12.9 0.00 0.00 0.00 30 1010.9
20260508160845 14 210 12.9 16.1 0.00 0.00 0.00 32 1010.7
20260508160344 14 208 19.3 25.7 0.00 0.00 0.00 31 1010.9
20260508155840 13 284 9.7 11.3 0.00 0.00 0.00 34 1011.1
20260508155337 13 266 6.4 12.9 0.00 0.00 0.00 34 1010.9
20260508154834 13 231 6.4 16.1 0.00 0.00 0.00 31 1011.0
20260508154332 13 261 11.3 17.7 0.00 0.00 0.00 31 1010.9
20260508153828 13 202 12.9 14.5 0.00 0.00 0.00 31 1011.0
20260508153326 13 263 8.0 24.1 0.00 0.00 0.00 29 1011.2
20260508152821 13 146 0.0 1.6 0.00 0.00 0.00 36 1011.0
20260508152318 13 244 8.0 14.5 0.00 0.00 0.00 33 1011.2
20260508151814 12 274 6.4 12.9 0.00 0.00 0.00 34 1011.3
20260508151312 13 279 9.7 14.5 0.00 0.00 0.00 33 1011.3
20260508150808 13 290 3.2 11.3 0.00 0.00 0.00 33 1011.2
20260508150305 13 244 16.1 16.1 0.00 0.00 0.00 34 1011.3
20260508145801 13 167 12.9 14.5 0.00 0.00 0.00 34 1011.4
20260508145257 12 222 3.2 11.3 0.00 0.00 0.00 38 1011.5
20260508144753 12 159 4.8 11.3 0.00 0.00 0.00 35 1011.4
20260508144252 12 273 8.0 12.9 0.00 0.00 0.00 36 1011.5
20260508143749 12 162 6.4 9.7 0.00 0.00 0.00 36 1011.3
20260508143246 12 211 9.7 11.3 0.00 0.00 0.00 37 1011.3
20260508142742 12 223 11.3 12.9 0.00 0.00 0.00 44 1011.6
20260508142239 11 286 8.0 9.7 0.00 0.00 0.00 45 1011.6
20260508141736 11 206 9.7 16.1 0.00 0.00 0.00 43 1011.5
20260508141233 11 201 4.8 9.7 0.00 0.00 0.00 48 1011.9
20260508140730 11 204 4.8 9.7 0.00 0.00 0.00 45 1011.8
20260508140227 11 176 4.8 9.7 0.00 0.00 0.00 47 1011.8
20260508135723 11 181 4.8 9.7 0.00 0.00 0.00 50 1012.0
20260508135219 10 191 6.4 6.4 0.00 0.00 0.00 52 1012.0
20260508134715 10 153 4.8 6.4 0.00 0.00 0.00 51 1011.8
20260508134213 10 252 4.8 9.7 0.00 0.00 0.00 54 1011.7
20260508133709 10 219 6.4 6.4 0.00 0.00 0.00 55 1011.9
20260508133207 10 231 8.0 11.3 0.00 0.00 0.00 55 1011.9
20260508132704 10 195 11.3 14.5 0.00 0.00 0.00 54 1012.0
20260508132201 9 246 4.8 9.7 0.00 0.00 0.00 57 1012.0
20260508131657 9 165 9.7 11.3 0.00 0.00 0.00 55 1012.1
20260508131154 9 205 8.0 11.3 0.00 0.00 0.00 59 1012.1
20260508130650 8 198 6.4 11.3 0.00 0.00 0.00 63 1011.9
20260508130148 8 178 4.8 9.7 0.00 0.00 0.00 63 1012.2
20260508125643 8 168 6.4 9.7 0.00 0.00 0.00 66 1012.1
20260508125140 7 190 6.4 9.7 0.00 0.00 0.00 67 1011.9
20260508124638 7 179 4.8 6.4 0.00 0.00 0.00 69 1012.0
20260508124135 7 188 8.0 6.4 0.00 0.00 0.00 69 1012.1
20260508123633 6 196 3.2 4.8 0.00 0.00 0.00 72 1011.9
20260508123131 6 185 4.8 6.4 0.00 0.00 0.00 73 1012.0
20260508122626 6 219 4.8 4.8 0.00 0.00 0.00 78 1012.0
20260508122124 5 197 3.2 4.8 0.00 0.00 0.00 78 1011.9
20260508121622 5 208 3.2 3.2 0.00 0.00 0.00 79 1011.9
20260508121120 5 201 3.2 4.8 0.00 0.00 0.00 79 1012.0
20260508120617 4 202 3.2 3.2 0.00 0.00 0.00 83 1011.8
20260508120115 3 202 1.6 3.2 0.00 0.00 0.00 86 1012.1
20260508115612 3 127 0.0 0.0 0.00 0.00 0.00 89 1011.4
20260508115109 2 126 0.0 0.0 0.00 0.00 0.00 91 1011.6
20260508114606 2 126 0.0 0.0 0.00 0.00 0.00 92 1011.7
20260508114102 2 127 0.0 0.0 0.00 0.00 0.00 92 1011.5
20260508113559 1 127 0.0 0.0 0.00 0.00 0.00 93 1011.6
20260508113058 1 126 0.0 0.0 0.00 0.00 0.00 93 1011.5
20260508112553 1 126 0.0 0.0 0.00 0.00 0.00 93 1011.4
20260508112050 1 126 0.0 0.0 0.00 0.00 0.00 93 1011.2
20260508111547 1 126 0.0 0.0 0.00 0.00 0.00 93 1011.3
20260508111044 1 126 0.0 0.0 0.00 0.00 0.00 93 1011.3
20260508110543 1 126 0.0 0.0 0.00 0.00 0.00 93 1011.4
20260508110038 0 126 0.0 0.0 0.00 0.00 0.00 93 1011.4
20260508105533 0 125 0.0 0.0 0.00 0.00 0.00 93 1011.1
20260508105031 1 125 0.0 0.0 0.00 0.00 0.00 93 1011.2
20260508104529 1 125 0.0 0.0 0.00 0.00 0.00 93 1011.2
20260508104024 0 125 0.0 0.0 0.00 0.00 0.00 93 1011.2
20260508103521 0 125 0.0 0.0 0.00 0.00 0.00 93 1011.3
20260508103019 0 125 0.0 0.0 0.00 0.00 0.00 92 1011.3
20260508102517 1 126 0.0 0.0 0.00 0.00 0.00 92 1011.3
20260508102014 1 126 0.0 0.0 0.00 0.00 0.00 92 1011.2
20260508101512 1 125 0.0 0.0 0.00 0.00 0.00 92 1011.4
20260508101008 1 125 0.0 0.0 0.00 0.00 0.00 92 1011.4
20260508100507 1 125 0.0 0.0 0.00 0.00 0.00 92 1011.4
20260508100003 1 125 0.0 0.0 0.00 0.00 0.00 92 1011.3
20260508095500 1 126 0.0 0.0 0.00 0.00 0.00 91 1011.4
20260508094957 1 125 0.0 0.0 0.00 0.00 0.00 91 1011.5
20260508094454 1 125 0.0 0.0 0.00 0.00 0.00 92 1011.5
20260508093950 1 125 0.0 0.0 0.00 0.00 0.00 91 1011.4
20260508093448 1 125 0.0 0.0 0.00 0.00 0.00 91 1011.4
20260508092946 1 125 0.0 0.0 0.00 0.00 0.00 91 1011.2
20260508092443 1 125 0.0 0.0 0.00 0.00 0.00 91 1011.6
20260508091942 1 125 0.0 0.0 0.00 0.00 0.00 91 1011.5
20260508091438 1 125 0.0 0.0 0.00 0.00 0.00 90 1011.5
20260508090935 1 125 0.0 0.0 0.00 0.00 0.00 90 1011.4
20260508090434 1 125 0.0 0.0 0.00 0.00 0.00 89 1011.3
20260508085929 1 125 0.0 0.0 0.00 0.00 0.00 88 1011.4
20260508085426 2 125 0.0 0.0 0.00 0.00 0.00 88 1011.4
20260508084923 1 125 0.0 0.0 0.00 0.00 0.00 89 1011.6
20260508084419 1 125 0.0 0.0 0.00 0.00 0.00 89 1011.5
20260508083918 2 125 0.0 0.0 0.00 0.00 0.00 88 1011.4
20260508083415 2 125 0.0 0.0 0.00 0.00 0.00 88 1011.5
20260508082914 2 125 0.0 0.0 0.00 0.00 0.00 88 1011.4
20260508082412 2 125 0.0 0.0 0.00 0.00 0.00 88 1011.8
20260508081910 2 125 0.0 0.0 0.00 0.00 0.00 88 1011.6
20260508081406 2 125 0.0 0.0 0.00 0.00 0.00 87 1011.6
20260508080903 2 125 0.0 0.0 0.00 0.00 0.00 85 1011.8
20260508080401 2 126 0.0 0.0 0.00 0.00 0.00 84 1011.6
20260508075857 2 125 1.6 0.0 0.00 0.00 0.00 85 1011.8
20260508075354 2 125 0.0 0.0 0.00 0.00 0.00 84 1011.6
20260508074852 3 126 0.0 0.0 0.00 0.00 0.00 84 1011.7
20260508074349 3 127 0.0 1.6 0.00 0.00 0.00 84 1011.7
20260508073846 3 127 1.6 1.6 0.00 0.00 0.00 83 1011.7
20260508073344 3 127 0.0 1.6 0.00 0.00 0.00 83 1011.8
20260508072840 3 127 1.6 1.6 0.00 0.00 0.00 83 1011.8
20260508072336 3 127 1.6 1.6 0.00 0.00 0.00 83 1011.8
20260508071834 3 127 3.2 3.2 0.00 0.00 0.00 82 1011.9
20260508071333 3 127 3.2 3.2 0.00 0.00 0.00 83 1011.7
20260508070830 3 127 3.2 3.2 0.00 0.00 0.00 82 1011.7
20260508070328 3 126 0.0 0.0 0.00 0.00 0.00 82 1011.9
20260508065825 3 126 0.0 0.0 0.00 0.00 0.00 82 1011.6
20260508065323 3 126 0.0 0.0 0.00 0.00 0.00 82 1011.8
20260508064821 3 126 0.0 0.0 0.00 0.00 0.00 81 1011.6
20260508064318 4 126 0.0 0.0 0.00 0.00 0.00 81 1011.6
20260508063815 4 126 0.0 0.0 0.00 0.00 0.00 81 1011.7
20260508063313 4 127 0.0 0.0 0.00 0.00 0.00 81 1011.6
20260508062810 4 127 0.0 0.0 0.00 0.00 0.00 80 1011.7
20260508062308 5 127 1.6 1.6 0.00 0.00 0.00 80 1011.8
20260508061804 5 126 3.2 3.2 0.00 0.00 0.00 78 1012.0
20260508061302 5 105 3.2 3.2 0.00 0.00 0.00 79 1012.0
20260508060758 4 93 0.0 1.6 0.00 0.00 0.00 78 1011.8
20260508060256 5 93 0.0 0.0 0.00 0.00 0.00 76 1011.7
20260508055751 5 93 3.2 3.2 0.00 0.00 0.00 76 1012.0
20260508055249 5 69 0.0 0.0 0.00 0.00 0.00 74 1012.1
20260508054745 5 70 1.6 3.2 0.00 0.00 0.00 73 1011.9
20260508054243 5 34 0.0 0.0 0.00 0.00 0.00 77 1012.3
20260508053740 5 34 0.0 0.0 0.00 0.00 0.00 77 1012.1
20260508053237 5 34 0.0 1.6 0.00 0.00 0.00 74 1012.3
20260508052734 5 34 0.0 0.0 0.00 0.00 0.00 73 1012.3
20260508052231 5 34 0.0 0.0 0.00 0.00 0.00 72 1012.2
20260508051727 5 34 0.0 0.0 0.00 0.00 0.00 73 1012.1
20260508051223 5 34 0.0 0.0 0.00 0.00 0.00 72 1012.0
20260508050719 5 34 0.0 0.0 0.00 0.00 0.00 73 1012.2
20260508050217 5 34 0.0 0.0 0.00 0.00 0.00 73 1012.0
20260508045712 5 34 0.0 0.0 0.00 0.00 0.00 73 1012.3
20260508045210 5 34 0.0 0.0 0.00 0.00 0.00 72 1012.0
20260508044707 5 34 0.0 0.0 0.00 0.00 0.00 72 1012.0
20260508044204 5 34 0.0 0.0 0.00 0.00 0.00 72 1012.0
20260508043659 5 34 0.0 0.0 0.00 0.00 0.00 72 1012.0
20260508043158 5 34 0.0 0.0 0.00 0.00 0.00 70 1012.0